Location: Oshawa
(43.9000°N, 78.8670°W)
Time: 22:36:52
(UTC-04:00)

Iridium 54 - Visible Passes

Search period start: 02 July 2015 00:00
Search period end: 12 July 2015 00:00
Orbit: 776 x 779 km, 86.4° (Epoch: 02 July)

Date Brightness Start Highest point End Pass type
(mag) Time Alt. Az. Time Alt. Az. Time Alt. Az.
02 Jul 7.4 00:48:58 16° E 00:50:30 18° E 00:54:04 10° NE visible
02 Jul 5.8 02:29:26 43° SW 02:30:50 56° W 02:35:58 10° N visible
03 Jul 5.5 01:56:03 54° S 01:57:15 82° E 02:02:30 10° N visible
03 Jul 7.6 03:36:31 10° W 03:38:49 13° WNW 03:40:59 10° NW visible
04 Jul 6.1 01:22:39 39° ESE 01:23:48 45° E 01:28:47 10° NNE visible
04 Jul 7.0 03:03:08 20° WSW 03:04:50 23° WNW 03:08:51 10° NNW visible
05 Jul 6.9 00:49:15 23° ESE 00:50:27 26° E 00:54:44 10° NNE visible
05 Jul 6.3 02:29:44 34° WSW 02:31:00 39° W 02:35:54 10° NNW visible
06 Jul 7.6 00:15:51 13° E 00:17:11 14° ENE 00:20:03 10° NE visible
06 Jul 5.5 01:56:19 55° SW 01:57:21 71° W 02:02:36 10° N visible
07 Jul 5.6 01:22:55 54° SE 01:23:50 65° E 01:29:01 10° N visible
07 Jul 7.4 03:03:23 14° W 03:05:11 16° WNW 03:08:17 10° NW visible
08 Jul 6.4 00:49:29 33° ESE 00:50:25 36° E 00:55:11 10° NNE visible
08 Jul 6.8 02:29:58 25° WSW 02:31:15 28° WNW 02:35:41 10° NNW visible
09 Jul 7.2 00:16:04 19° E 00:17:06 21° E 00:20:58 10° NNE visible
09 Jul 5.9 01:56:32 44° WSW 01:57:31 49° W 02:02:35 10° N visible
09 Jul 7.7 23:42:38 10° E 23:43:53 11° ENE 23:45:36 10° ENE visible
10 Jul 5.4 01:23:06 65° S 01:23:55 89° W 01:29:10 10° N visible
10 Jul 7.8 03:03:51 10° W 03:05:35 11° WNW 03:07:01 10° NW visible
11 Jul 5.9 00:49:40 47° ESE 00:50:26 51° E 00:55:30 10° NNE visible
11 Jul 7.2 02:30:08 18° W 02:31:34 20° WNW 02:35:19 10° NNW visible
